�������l�o���
Date,Time,MP-1(��Sv/h),MP-2(��Sv/h),MP-3(��Sv/h),MP-4(��Sv/h),MP-5(��Sv/h),MP-6(��Sv/h),MP-7(��Sv/h),MP-8(��Sv/h),����,����(m/s),���J
2021/10/27,00:00,0.563,0.840,0.536,1.030,0.707,0.350,0.606,0.570,��쓌,2.2,��
2021/10/27,00:10,0.565,0.841,0.537,1.028,0.705,0.349,0.604,0.570,��쐼,1.7,��
2021/10/27,00:20,0.565,0.840,0.536,1.030,0.706,0.350,0.604,0.568,�쐼,2.8,��
2021/10/27,00:30,0.567,0.841,0.537,1.030,0.707,0.349,0.605,0.569,�쐼,2.5,��
2021/10/27,00:40,0.566,0.841,0.536,1.029,0.706,0.350,0.604,0.569,�쐼,2.3,��
2021/10/27,00:50,0.564,0.840,0.538,1.031,0.705,0.350,0.603,0.570,�쐼,2.3,��
2021/10/27,01:00,0.567,0.840,0.535,1.029,0.708,0.350,0.606,0.570,��,1.9,��
2021/10/27,01:10,0.564,0.842,0.536,1.032,0.707,0.349,0.606,0.569,���k��,2.0,��
2021/10/27,01:20,0.565,0.841,0.535,1.029,0.708,0.349,0.603,0.571,�k��,2.0,��
2021/10/27,01:30,0.565,0.843,0.537,1.030,0.709,0.349,0.606,0.571,���k��,1.2,��
2021/10/27,01:40,0.565,0.841,0.536,1.030,0.707,0.349,0.604,0.569,���쐼,1.2,��
2021/10/27,01:50,0.566,0.840,0.538,1.030,0.709,0.350,0.605,0.571,���쐼,1.2,��
2021/10/27,02:00,0.565,0.841,0.533,1.031,0.708,0.350,0.605,0.571,-,CALM,��
2021/10/27,02:10,0.565,0.841,0.537,1.029,0.710,0.348,0.604,0.569,���k��,2.2,��
2021/10/27,02:20,0.567,0.840,0.537,1.032,0.707,0.348,0.605,0.569,���k��,3.2,��
2021/10/27,02:30,0.564,0.842,0.537,1.028,0.706,0.349,0.604,0.571,���k��,4.7,��
2021/10/27,02:40,0.565,0.841,0.538,1.030,0.709,0.350,0.604,0.570,���k��,4.9,��
2021/10/27,02:50,0.565,0.841,0.537,1.031,0.708,0.350,0.606,0.570,���k��,4.2,��
2021/10/27,03:00,0.567,0.841,0.535,1.032,0.708,0.350,0.605,0.570,���k��,4.6,��
2021/10/27,03:10,0.565,0.841,0.537,1.030,0.708,0.350,0.604,0.570,���k��,4.0,��
2021/10/27,03:20,0.565,0.842,0.538,1.031,0.709,0.351,0.605,0.568,���k��,3.4,��
2021/10/27,03:30,0.565,0.842,0.537,1.031,0.707,0.350,0.604,0.570,���k��,3.5,��
2021/10/27,03:40,0.564,0.842,0.538,1.029,0.710,0.349,0.604,0.571,�k��,3.5,��
2021/10/27,03:50,0.564,0.841,0.537,1.030,0.709,0.350,0.604,0.569,�k��,3.6,��
2021/10/27,04:00,0.564,0.841,0.536,1.030,0.708,0.351,0.605,0.569,���k��,3.6,��
2021/10/27,04:10,0.566,0.841,0.538,1.030,0.708,0.350,0.606,0.571,��,2.6,��
2021/10/27,04:20,0.565,0.841,0.538,1.032,0.708,0.350,0.604,0.570,���쐼,1.9,��
2021/10/27,04:30,0.565,0.841,0.538,1.029,0.710,0.350,0.604,0.571,��,1.2,��
2021/10/27,04:40,0.566,0.842,0.537,1.030,0.707,0.350,0.605,0.571,��,1.7,��
2021/10/27,04:50,0.565,0.842,0.537,1.032,0.709,0.350,0.605,0.570,�쐼,1.4,��
2021/10/27,05:00,0.564,0.842,0.537,1.030,0.709,0.351,0.605,0.570,��,1.9,��
2021/10/27,05:10,0.566,0.841,0.538,1.030,0.710,0.350,0.605,0.570,���쐼,3.0,��
2021/10/27,05:20,0.565,0.841,0.537,1.033,0.711,0.349,0.604,0.571,���쐼,2.3,��
2021/10/27,05:30,0.565,0.843,0.536,1.030,0.711,0.350,0.603,0.571,��,1.7,��
2021/10/27,05:40,0.565,0.840,0.539,1.029,0.710,0.350,0.604,0.571,�k��,1.7,��
2021/10/27,05:50,0.565,0.841,0.536,1.030,0.710,0.350,0.606,0.569,�k��,1.9,��
2021/10/27,06:00,0.565,0.842,0.538,1.032,0.710,0.350,0.604,0.570,��,1.2,��
2021/10/27,06:10,0.566,0.840,0.538,1.030,0.711,0.350,0.605,0.569,���쐼,1.4,��
2021/10/27,06:20,0.565,0.841,0.538,1.033,0.711,0.350,0.606,0.570,��,2.0,��
2021/10/27,06:30,0.566,0.841,0.538,1.030,0.710,0.349,0.604,0.570,�쐼,1.4,��
2021/10/27,06:40,0.566,0.842,0.537,1.031,0.709,0.350,0.604,0.570,��,2.3,��
2021/10/27,06:50,0.566,0.842,0.538,1.032,0.711,0.350,0.605,0.571,�쐼,2.0,��
2021/10/27,07:00,0.563,0.843,0.541,1.030,0.711,0.349,0.605,0.570,���쐼,2.6,��
2021/10/27,07:10,0.564,0.843,0.538,1.031,0.711,0.351,0.606,0.569,��,3.3,��
2021/10/27,07:20,0.565,0.843,0.537,1.032,0.710,0.349,0.604,0.572,���쐼,2.0,��
2021/10/27,07:30,0.564,0.842,0.538,1.031,0.711,0.349,0.605,0.570,�쐼,2.3,��
2021/10/27,07:40,0.567,0.843,0.537,1.031,0.713,0.350,0.605,0.571,���쐼,2.6,��
2021/10/27,07:50,0.565,0.844,0.538,1.032,0.712,0.350,0.607,0.570,���쐼,2.3,��
2021/10/27,08:00,0.567,0.844,0.539,1.031,0.712,0.349,0.607,0.569,�쐼,2.2,��
2021/10/27,08:10,0.568,0.843,0.538,1.032,0.712,0.350,0.608,0.573,�쐼,2.0,��
2021/10/27,08:20,0.567,0.843,0.539,1.033,0.713,0.350,0.606,0.570,��쐼,1.5,��
2021/10/27,08:30,0.567,0.843,0.539,1.034,0.713,0.350,0.606,0.572,��쐼,2.0,��
2021/10/27,08:40,0.568,0.842,0.539,1.033,0.712,0.350,0.605,0.572,��,1.7,��
2021/10/27,08:50,0.567,0.839,0.539,1.031,0.714,0.350,0.605,0.572,��쓌,2.0,��
2021/10/27,09:00,0.568,0.840,0.539,1.033,0.714,0.351,0.603,0.571,��쓌,2.3,��
2021/10/27,09:10,0.564,0.841,0.539,1.032,0.716,0.351,0.604,0.572,��쓌,3.8,��
2021/10/27,09:20,0.567,0.841,0.540,1.033,0.713,0.351,0.606,0.572,��,4.1,��
2021/10/27,09:30,0.566,0.843,0.540,1.031,0.714,0.352,0.606,0.574,��,3.3,��
2021/10/27,09:40,0.566,0.843,0.538,1.036,0.716,0.351,0.606,0.574,��쓌,4.4,��
2021/10/27,09:50,0.568,0.843,0.540,1.035,0.715,0.351,0.606,0.574,��쓌,3.8,��
2021/10/27,10:00,0.567,0.844,0.541,1.032,0.717,0.351,0.605,0.572,��쓌,5.0,��
2021/10/27,10:10,0.567,0.845,0.541,1.034,0.717,0.349,0.605,0.572,��,4.7,��
2021/10/27,10:20,0.568,0.847,0.541,1.034,0.715,0.349,0.606,0.572,��쓌,4.8,��
2021/10/27,10:30,0.568,0.846,0.540,1.034,0.712,0.350,0.604,0.572,��쓌,5.2,��
2021/10/27,10:40,0.570,0.844,0.543,1.035,-,0.349,0.606,0.571,��쓌,5.6,��
2021/10/27,10:50,0.568,0.846,0.543,1.034,-,0.349,0.606,0.571,��,5.1,��
2021/10/27,11:00,0.568,0.848,0.541,1.033,-,0.350,0.606,0.571,��쓌,5.6,��
2021/10/27,11:10,0.571,0.846,0.541,1.034,-,0.349,0.606,0.569,��쓌,5.6,��
2021/10/27,11:20,0.570,0.847,0.542,1.036,-,0.350,0.607,0.571,��쓌,5.5,��
2021/10/27,11:30,0.571,0.849,0.541,1.036,-,0.352,0.607,0.571,��쓌,4.9,��
2021/10/27,11:40,0.572,0.851,0.541,1.037,-,0.350,0.606,0.571,��쓌,5.4,��
2021/10/27,11:50,0.570,0.850,0.541,1.036,-,0.352,0.607,0.571,��쓌,6.5,��
2021/10/27,12:00,0.569,0.849,0.541,1.035,-,0.350,0.607,0.571,��쓌,6.7,��
2021/10/27,12:10,0.571,0.850,0.541,1.034,-,0.350,0.606,0.570,��쓌,7.3,��
2021/10/27,12:20,0.571,0.851,0.542,1.035,-,0.350,0.606,0.570,��쓌,6.7,��
2021/10/27,12:30,0.571,0.849,0.542,1.036,-,0.352,0.607,0.570,��쓌,7.1,��
2021/10/27,12:40,0.572,0.851,0.543,1.038,-,0.350,0.608,0.572,��쓌,6.6,��
2021/10/27,12:50,0.572,0.848,0.542,1.037,0.715,0.351,0.608,0.571,��쓌,6.2,��
2021/10/27,13:00,0.572,0.850,0.543,1.038,0.718,0.351,0.608,0.571,��쓌,6.3,��
2021/10/27,13:10,0.570,0.850,0.543,1.037,0.721,0.351,0.607,0.572,��쓌,7.6,��
2021/10/27,13:20,0.572,0.849,0.542,1.036,0.721,0.350,0.607,0.572,��쓌,5.8,��
2021/10/27,13:30,0.572,0.849,0.544,1.037,0.723,0.350,0.608,0.571,��쓌,6.4,��
2021/10/27,13:40,0.571,0.852,0.543,1.037,0.720,0.352,0.607,0.572,��쓌,7.0,��
2021/10/27,13:50,0.571,0.850,0.543,1.036,0.720,0.353,0.607,0.572,��쓌,7.6,��
2021/10/27,14:00,0.573,0.852,0.543,1.035,0.723,0.353,0.608,0.571,��,7.0,��
2021/10/27,14:10,0.573,0.850,0.542,1.035,0.722,0.351,0.607,0.571,��쓌,6.7,��
2021/10/27,14:20,0.573,0.847,0.543,1.036,0.721,0.352,0.607,0.571,��,5.7,��
2021/10/27,14:30,0.572,0.850,0.542,1.039,0.721,0.352,0.608,0.572,��쓌,7.5,��
2021/10/27,14:40,0.571,0.852,0.542,1.038,0.721,0.351,0.608,0.570,��,7.2,��
2021/10/27,14:50,0.572,0.849,0.543,1.037,0.720,0.352,0.609,0.573,��쓌,6.5,��
2021/10/27,15:00,0.573,0.850,0.542,1.037,0.723,0.351,0.609,0.570,��,7.6,��
2021/10/27,15:10,0.571,0.852,0.542,1.038,0.722,0.352,0.609,0.572,��,7.4,��
2021/10/27,15:20,0.572,0.850,0.544,1.038,0.721,0.352,0.607,0.572,��,6.3,��
2021/10/27,15:30,0.571,0.851,0.546,1.038,0.722,0.352,0.609,0.572,��,6.3,��
2021/10/27,15:40,0.571,0.852,0.544,1.038,0.722,0.352,0.608,0.571,��,6.1,��
2021/10/27,15:50,0.571,0.850,0.545,1.038,0.722,0.353,0.609,0.572,��,6.2,��
2021/10/27,16:00,0.572,0.852,0.545,1.038,0.721,0.352,0.608,0.572,��,5.8,��
2021/10/27,16:10,0.572,0.854,0.544,1.039,0.724,0.351,0.608,0.573,��,5.3,�L
2021/10/27,16:20,0.571,0.853,0.545,1.038,0.721,0.353,0.607,0.572,��쐼,5.6,�L
2021/10/27,16:30,0.572,0.856,0.547,1.039,0.725,0.353,0.609,0.574,��쐼,5.8,�L
2021/10/27,16:40,0.572,0.856,0.547,1.040,0.721,0.354,0.608,0.572,��쐼,5.5,�L
2021/10/27,16:50,0.573,0.856,0.544,1.038,0.726,0.353,0.608,0.573,��쐼,4.8,��
2021/10/27,17:00,0.574,0.856,0.546,1.039,0.725,0.354,0.607,0.574,��,4.6,��
2021/10/27,17:10,0.574,0.859,0.544,1.036,0.724,0.353,0.608,0.575,��,4.7,��
2021/10/27,17:20,0.574,0.856,0.547,1.039,0.725,0.353,0.609,0.574,��,4.9,�L
2021/10/27,17:30,0.575,0.859,0.547,1.041,0.727,0.354,0.609,0.575,��,4.7,�L
2021/10/27,17:40,0.574,0.857,0.547,1.040,0.725,0.354,0.608,0.575,��,5.1,�L
2021/10/27,17:50,0.574,0.855,0.547,1.037,0.723,0.355,0.609,0.575,��,5.9,��
2021/10/27,18:00,0.574,0.856,0.546,1.038,0.726,0.354,0.611,0.576,��,5.9,��
2021/10/27,18:10,0.574,0.858,0.547,1.039,0.726,0.355,0.609,0.575,��,5.8,��
2021/10/27,18:20,0.574,0.858,0.546,1.039,0.726,0.354,0.609,0.574,��,5.0,�L
2021/10/27,18:30,0.574,0.857,0.547,1.039,0.726,0.352,0.609,0.574,��쐼,5.6,��
2021/10/27,18:40,0.573,0.857,0.548,1.040,0.727,0.353,0.610,0.574,��쐼,5.8,��
2021/10/27,18:50,0.574,0.856,0.547,1.038,0.726,0.353,0.609,0.572,��,5.5,��
2021/10/27,19:00,0.574,0.856,0.546,1.038,0.727,0.353,0.608,0.574,��,4.6,��
2021/10/27,19:10,0.574,0.856,0.545,1.040,0.727,0.352,0.609,0.574,��쐼,4.2,��
2021/10/27,19:20,0.575,0.857,0.546,1.037,0.727,0.353,0.609,0.573,��쐼,4.5,��
2021/10/27,19:30,0.574,0.858,0.546,1.039,0.726,0.352,0.609,0.575,��쐼,4.4,�L
2021/10/27,19:40,0.573,0.858,0.547,1.038,0.726,0.354,0.609,0.575,��,3.7,�L
2021/10/27,19:50,0.576,0.858,0.546,1.039,0.726,0.353,0.610,0.574,��,2.8,�L
2021/10/27,20:00,0.575,0.859,0.545,1.039,0.725,0.352,0.608,0.575,��,3.3,�L
2021/10/27,20:10,0.573,0.858,0.546,1.039,0.729,0.353,0.609,0.575,��쓌,2.9,�L
2021/10/27,20:20,0.572,0.857,0.547,1.042,0.727,0.352,0.609,0.574,��쓌,3.4,��
2021/10/27,20:30,0.573,0.856,0.546,1.040,0.727,0.353,0.612,0.574,��,3.7,��
2021/10/27,20:40,0.574,0.855,0.546,1.039,0.726,0.352,0.609,0.574,��쓌,4.0,��
2021/10/27,20:50,0.573,0.857,0.545,1.037,0.727,0.354,0.612,0.574,��쓌,4.0,��
2021/10/27,21:00,0.575,0.858,0.547,1.038,0.728,0.353,0.608,0.574,��쓌,3.4,��
2021/10/27,21:10,0.574,0.858,0.546,1.040,0.726,0.353,0.610,0.573,��,2.8,��
2021/10/27,21:20,0.573,0.858,0.545,1.038,0.727,0.353,0.609,0.574,��,3.0,��
2021/10/27,21:30,0.574,0.856,0.544,1.040,0.728,0.354,0.611,0.574,��,2.3,��
2021/10/27,21:40,0.574,0.856,0.546,1.038,0.725,0.353,0.610,0.575,��,1.9,��
2021/10/27,21:50,0.572,0.857,0.546,1.040,0.729,0.354,0.610,0.574,��,1.2,��
2021/10/27,22:00,0.573,0.858,0.546,1.040,0.728,0.352,0.610,0.575,��쓌,1.5,��
2021/10/27,22:10,0.573,0.858,0.545,1.039,0.727,0.352,0.611,0.574,��쐼,1.4,��
2021/10/27,22:20,0.573,0.857,0.545,1.036,0.727,0.352,0.608,0.575,��,0.6,��
2021/10/27,22:30,0.574,0.858,0.545,1.037,0.725,0.352,0.610,0.575,��쐼,0.6,��
2021/10/27,22:40,0.574,0.856,0.546,1.038,0.727,0.355,0.609,0.575,�k��,0.9,��
2021/10/27,22:50,0.574,0.857,0.544,1.037,0.729,0.352,0.608,0.575,�k,1.1,��
2021/10/27,23:00,0.573,0.858,0.546,1.038,0.729,0.354,0.609,0.574,�k��,1.2,��
2021/10/27,23:10,0.573,0.857,0.547,1.035,0.728,0.352,0.610,0.574,���k��,2.5,��
2021/10/27,23:20,0.574,0.857,0.545,1.038,0.727,0.353,0.607,0.575,�k��,2.8,��
2021/10/27,23:30,0.572,0.857,0.544,1.039,0.728,0.354,0.610,0.574,�k�k��,2.9,��
2021/10/27,23:40,0.575,0.856,0.545,1.038,0.726,0.354,0.610,0.574,�k�k��,4.0,��
2021/10/27,23:50,0.574,0.858,0.545,1.037,0.727,0.352,0.608,0.574,�k��,4.4,��
